Flag Weather past 2 weeks in Camagüey, Cuba

Now
70 °F

Passing clouds.


Feels Like: 70 °F
Forecast: 70 / 86 °F
Wind: 5 mph from North

Location: Camaguey Aeropuerto

Current Time: Oct 30, 2014 at 8:27:47 AM

Latest Report: Oct 30, 2014 at 7:51 AM


Visibility: 6 mi

Pressure: 29.95 "Hg

Humidity: 88%

Dew point: 66 °F

Location of CamagüeyLocation

Historic Weather in Camagüey — Graph

°F

Camagüey temperature yesterday

Maximum temperature yesterday: 86 °F (at 1:52 PM)
Minimum temperature yesterday: 73 °F (at 12:50 AM)
Average temperature yesterday: 78 °F

Past Weeks' High & Low Weather Summary

 TemperatureHumidityPressure
High91 °F (Oct 15, 2:50 PM)94% (Oct 19, 12:52 AM)30.09 "Hg (Oct 19, 12:52 AM)
Low66 °F (Oct 27, 2:50 AM)44% (Oct 15, 2:50 PM)29.80 "Hg (Oct 24, 4:51 PM)
Average77 °F78%29.95 "Hg
* Reported Oct 15 6:50 AM — Oct 30 6:50 AM, Camagüey, Weather by CustomWeather, © 2014

Note: Actual official high and low records may vary slightly from our data, if they occured in-between our weather recording intervals... More about our weather records

Advertising

Camagüey weather history for previous 24 hours

 ConditionsComfort  
Time TempWeatherWind HumidityBarometerVisibility
6:50 AM
Oct 30
72 °FClear.6 mph83%29.95 "Hg6 mi
5:50 AM70 °FClear.5 mph88%29.92 "Hg6 mi
4:51 AM70 °FClear.6 mph88%29.92 "Hg6 mi
3:50 AM72 °FPassing clouds.5 mph83%29.92 "Hg6 mi
2:50 AM72 °FPassing clouds.7 mph83%29.92 "Hg6 mi
1:50 AM72 °FPassing clouds.7 mph88%29.95 "Hg6 mi
12:50 AM72 °FPassing clouds.5 mph83%29.98 "Hg6 mi
11:53 PM
Oct 29
73 °FPassing clouds.8 mph78%29.98 "Hg6 mi
10:50 PM73 °FPassing clouds.8 mph78%29.98 "Hg6 mi
9:50 PM75 °FPassing clouds.10 mph74%29.98 "Hg6 mi
8:50 PM75 °FPassing clouds.9 mph74%29.98 "Hg6 mi
7:50 PM75 °FPassing clouds.8 mph78%29.98 "Hg6 mi
6:50 PM79 °FPassing clouds.10 mph70%29.95 "Hg6 mi
5:50 PM81 °FPassing clouds.13 mph62%29.95 "Hg6 mi
4:50 PM82 °FPassing clouds.14 mph62%29.95 "Hg6 mi
3:50 PM84 °FPartly sunny.14 mph58%29.95 "Hg6 mi
2:50 PM84 °FPartly sunny.13 mph58%29.98 "Hg6 mi
1:52 PM86 °FScattered clouds.15 mph59%29.98 "Hg6 mi
12:50 PM82 °FPartly sunny.13 mph66%30.04 "Hg6 mi
11:50 AM84 °FPartly sunny.10 mph62%30.04 "Hg6 mi
10:50 AM81 °FScattered clouds.13 mph70%30.07 "Hg6 mi
9:50 AM81 °FPassing clouds.13 mph70%30.04 "Hg6 mi
8:50 AM77 °FScattered clouds.5 mph79%30.04 "Hg6 mi
Weather by CustomWeather, © 2014

See weather overviewHow to use our weather pages